Barksdale AFB, LA

4:37 AM CST on December 15, 2017 (GMT -0600)
Barksdale Air Force Base

Weather History for KBAD - March, 2012

Change the Weather History Date:

Tuesday, March 6, 2012

  Actual Average Record
Temperature  
Mean Temperature 60 °F -  
Max Temperature 76 °F 61 °F 81 °F (2009)
Min Temperature 45 °F 42 °F 23 °F (2015)
Degree Days  
Heating Degree Days 4    
Growing Degree Days 10 (Base 50)    
Moisture  
Dew Point 44 °F    
Average Humidity 56    
Maximum Humidity 83    
Minimum Humidity 26    
Precipitation  
Precipitation 0.00 in - - ()
Sea Level Pressure  
Sea Level Pressure 30.22 in    
Wind  
Wind Speed 10 mph (South)    
Max Wind Speed 28 mph    
Max Gust Speed 36 mph    
Visibility 10 miles    
Events      
Averages and records for this station are not official NWS values.
T = Trace of Precipitation, MM = Missing Value Source: NWS Daily Summary

Daily Weather History Graph

Daily Weather History Graph

Search for Another Location

Airport or City:

Trip Planner

Search our weather history database for the weather conditions in past years. The results will help you decide how hot, cold, wet, or windy it might be!

Date:

Astronomy

Mar. 06, 2012 Rise Set
Actual Time 6:35 AM CST 6:16 PM CST
Civil Twilight 6:11 AM CST 6:40 PM CST
Nautical Twilight 5:42 AM CST 7:09 PM CST
Astronomical Twilight 5:14 AM CST 7:37 PM CST
Moon 4:46 PM CST (3/6) 5:07 AM CST (3/6)
Length of Visible Light 12h 29m
Length of Day
11h 40m
Waxing Gibbous, 96% of the Moon is Illuminated
Mar 6
Waxing Gibbous
Mar 8
Full
Mar 14
Last Quarter
Mar 22
New
Mar 30
First Quarter

Hourly Weather History & Observations

Time (CST) Temp. Windchill Dew Point Humidity Pressure Visibility Wind Dir Wind Speed Gust Speed Precip Events Conditions
12:55 AM 51.1 °F - 38.7 °F 63% 30.30 in 10.0 mi South 6.9 mph - N/A   Clear
1:55 AM 49.8 °F - 39.0 °F 66% 30.29 in 10.0 mi South 6.9 mph - N/A   Clear
2:55 AM 48.4 °F - 38.8 °F 70% 30.28 in 10.0 mi SSE 4.6 mph - N/A   Clear
3:55 AM 48.0 °F - 38.3 °F 69% 30.26 in 10.0 mi SSE 4.6 mph - N/A   Clear
4:55 AM 46.4 °F 43.5 °F 38.5 °F 74% 30.26 in 10.0 mi South 5.8 mph - N/A   Clear
5:55 AM 47.3 °F - 39.2 °F 73% 30.27 in 10.0 mi South 3.5 mph - N/A   Clear
6:55 AM 45.3 °F 43.0 °F 40.3 °F 83% 30.28 in 10.0 mi SSE 4.6 mph - N/A   Clear
7:55 AM 52.7 °F - 46.0 °F 78% 30.30 in 10.0 mi South 6.9 mph - N/A   Clear
8:55 AM 58.3 °F - 48.9 °F 71% 30.30 in 10.0 mi South 8.1 mph - N/A   Clear
9:55 AM 62.8 °F - 50.4 °F 64% 30.31 in 10.0 mi South 10.4 mph - N/A   Clear
10:55 AM 68.2 °F - 51.6 °F 55% 30.30 in 10.0 mi South 11.5 mph - N/A   Clear
11:55 AM 73.6 °F - 45.7 °F 37% 30.26 in 10.0 mi SSW 18.4 mph - N/A   Clear
12:55 PM 75.9 °F - 38.7 °F 26% 30.20 in 10.0 mi SSW 27.6 mph 35.7 mph N/A   Clear
1:55 PM 74.7 °F - 41.7 °F 31% 30.17 in 10.0 mi South 24.2 mph 29.9 mph N/A   Clear
2:55 PM 76.5 °F - 44.6 °F 32% 30.14 in 10.0 mi SSW 20.7 mph 27.6 mph N/A   Partly Cloudy
3:55 PM 75.2 °F - 43.7 °F 32% 30.13 in 10.0 mi SSW 23.0 mph 34.5 mph N/A   Clear
4:55 PM 73.2 °F - 45.0 °F 36% 30.14 in 10.0 mi SSW 19.6 mph 26.5 mph N/A   Clear
5:55 PM 70.7 °F - 45.3 °F 40% 30.14 in 10.0 mi SSW 21.9 mph 28.8 mph N/A   Clear
6:55 PM 68.2 °F - 46.0 °F 45% 30.14 in 10.0 mi South 15.0 mph - N/A   Partly Cloudy
7:55 PM 65.3 °F - 47.8 °F 53% 30.15 in 10.0 mi South 12.7 mph - N/A   Partly Cloudy
8:55 PM 64.0 °F - 48.7 °F 57% 30.16 in 10.0 mi South 12.7 mph - N/A   Scattered Clouds
9:55 PM 63.0 °F - 49.5 °F 61% 30.17 in 10.0 mi South 13.8 mph - N/A   Clear
10:55 PM 61.0 °F - 49.3 °F 65% 30.15 in 10.0 mi South 11.5 mph - N/A   Clear
11:55 PM 61.0 °F - 48.6 °F 64% 30.14 in 10.0 mi South 15.0 mph - N/A   Clear